Regional Weather Roundup
Issued by NWS Sioux Falls, SD

Home | Current Version | Previous Version | Text Only | Print | Product List | Glossary Off
Versions: 1 2 3 4 5 6 7 8 9 10 11 12 13 14 15 16 17 18 19 20 21 22 23 24 25 26 27 28 29 30 31 32 33 34 35 36 37 38 39 40 41 42 43 44 45 46 47 48 49 50

000
ASUS43 KFSD 161410
RWRFSD

WEATHER ROUNDUP FOR SE SOUTH DAKOTA/SW MINNESOTA/NW IOWA
NATIONAL WEATHER SERVICE SIOUX FALLS SD
900 AM CDT WED APR 16 2014

NOTE: "FAIR" INDICATES FEW OR NO CLOUDS BELOW 12,000 FEET WITH NO
SIGNIFICANT WEATHER AND OR OBSTRUCTIONS TO VISIBILITY.


SDZ038>040-050-052>070-161500-
SOUTHEAST SOUTH DAKOTA

CITY           SKY/WX    TMP DP  RH WIND       PRES   REMARKS
CHAMBERLAIN      N/A     32  30  92 N21G29    29.68  WCI  20
HURON          LGT SNOW  32  27  81 NE18      29.70R VSB 1   WCI  20
MITCHELL       CLOUDY    41  34  76 NE17      29.60R
SIOUX FALLS    LGT RAIN  46  27  47 S22G31    29.61S
WINNER         LGT SNOW  34  32  92 N17       29.70R FOG     WCI  23
YANKTON        CLOUDY    48  25  40 S17G23    29.60S
$$

MNZ071-072-080-081-089-090-097-098-161500-
SOUTHWEST MINNESOTA

CITY           SKY/WX    TMP DP  RH WIND       PRES   REMARKS
FAIRMONT       CLOUDY    39  27  60 SE18G26   29.79S
JACKSON        CLOUDY    41  30  65 SE14G23   29.73F
LUVERNE        CLOUDY    45  32  61 S13       29.68R
MARSHALL       CLOUDY    36  23  60 E20G25    29.74F
MONTEVIDEO     LGT SNOW  32  27  80 SE23G32   29.82F WCI  19
PIPESTONE      CLOUDY    39  30  70 SE10      29.66S
REDWOOD FALLS  CLOUDY    37  24  59 E13G25    29.80F
TRACY          LGT SNOW  37  29  73 E13       29.73F
WINDOM         CLOUDY    37  30  75 E14       29.73F
WORTHINGTON    CLOUDY    39  28  65 SE16      29.69F
$$

IAZ001>003-012>014-020>022-031-032-NEZ013-014-SDZ071-161500-
NORTHWEST IOWA

CITY           SKY/WX    TMP DP  RH WIND       PRES   REMARKS
CHEROKEE       CLOUDY    46  31  56 S18G25    29.70F
DENISON        CLOUDY    46  30  53 S21G33    29.73F
ESTHERVILLE    CLOUDY    38  31  76 SE23G31   29.74F
LE MARS        CLOUDY    46  28  49 S25G33    29.65S
ORANGE CITY    CLOUDY    46  25  42 S22G30    29.66R
SHELDON        CLOUDY    45  30  57 S15G22    29.67S
SIOUX CITY     CLOUDY    49  28  44 S21G32    29.68R
SPENCER        CLOUDY    45  31  58 S24G33    29.70F
STORM LAKE     CLOUDY    45  32  61 S23G31    29.73F
$$

ABBREVIATIONS USED IN REMARKS
   TC - TEMPERATURE IN CELSIUS
  WCI - WIND CHILL INDEX
   HX - HEAT INDEX
  VSB - VISIBILITY




USA.gov is the U.S. government's official web portal to all federal, state and local government web resources and services.